When you browse on this site, cookies collect data to enhance your experience and personalize the content and advertising you see.
Visit our Privacy Policy to learn more. By continuing to use the site, you agree to this use of cookies and data.
  • In Hungary
  • List of Countries
  • For 7 days
  • Water Temperature
  • Weather Map
  • News
  • Weather Widgets
  • user-avatar
    Login

    Hourly Weather Ilovka

    Today, 23 January, Thursday

    Time Temperature Precipitation Wind Pressure Humidity
    00:00 -5°C° 0 mm 6 mps 735 mmHg 78%
    01:00 -5°C° 0 mm 6 mps 736 mmHg 78%
    02:00 -6°C° 0 mm 7 mps 737 mmHg 78%
    03:00 -5°C° 0 mm 6 mps 737 mmHg 74%
    04:00 -6°C° 0 mm 6 mps 737 mmHg 69%
    05:00 -6°C° 0 mm 6 mps 737 mmHg 65%
    06:00 -6°C° 0 mm 6 mps 738 mmHg 70%
    07:00 -6°C° 0 mm 6 mps 739 mmHg 76%
    08:00 -6°C° 0 mm 6 mps 739 mmHg 81%
    09:00 -6°C° 0 mm 6 mps 740 mmHg 72%
    10:00 -6°C° 0 mm 6 mps 740 mmHg 63%
    11:00 -5°C° 0 mm 6 mps 741 mmHg 53%
    12:00 -5°C° 0 mm 6 mps 741 mmHg 53%
    13:00 -5°C° 0 mm 6 mps 741 mmHg 52%
    14:00 -5°C° 0 mm 6 mps 742 mmHg 52%
    15:00 -5°C° 0 mm 6 mps 742 mmHg 56%
    16:00 -5°C° 0 mm 5 mps 742 mmHg 60%
    17:00 -4°C° 0 mm 4 mps 742 mmHg 64%
    18:00 -4°C° 0 mm 4 mps 742 mmHg 65%
    19:00 -4°C° 0 mm 4 mps 742 mmHg 66%
    20:00 -4°C° 0 mm 3 mps 742 mmHg 67%
    21:00 -4°C° 0 mm 3 mps 742 mmHg 72%
    22:00 -4°C° 0 mm 3 mps 742 mmHg 77%
    23:00 -4°C° 0 mm 3 mps 742 mmHg 82%

    Tomorrow, 24 January, Friday

    Time Temperature Precipitation Wind Pressure Humidity
    00:00 -4°C° 0 mm 3 mps 741 mmHg 85%
    01:00 -4°C° 0 mm 4 mps 741 mmHg 87%
    02:00 -4°C° 0 mm 4 mps 741 mmHg 89%
    03:00 -3°C° 0 mm 4 mps 740 mmHg 89%
    04:00 -4°C° 0 mm 5 mps 739 mmHg 89%
    05:00 -4°C° 0 mm 5 mps 738 mmHg 89%
    06:00 -4°C° 0.2 mm 5 mps 738 mmHg 91%
    07:00 -4°C° 0.2 mm 6 mps 737 mmHg 93%
    08:00 -4°C° 0.2 mm 6 mps 737 mmHg 95%
    09:00 -3°C° 0.2 mm 6 mps 736 mmHg 95%
    10:00 -1°C° 0.2 mm 5 mps 736 mmHg 95%
    11:00 0°C° 0.2 mm 5 mps 735 mmHg 95%
    12:00 -1°C° 0.1 mm 6 mps 735 mmHg 94%
    13:00 +1°C° 0.1 mm 6 mps 734 mmHg 93%
    14:00 +2°C° 0.1 mm 6 mps 734 mmHg 92%
    15:00 +2°C° 0 mm 6 mps 734 mmHg 90%
    16:00 +2°C° 0 mm 6 mps 733 mmHg 89%
    17:00 +2°C° 0 mm 6 mps 733 mmHg 88%
    18:00 +2°C° 0.1 mm 6 mps 733 mmHg 89%
    19:00 +2°C° 0.1 mm 6 mps 734 mmHg 90%
    20:00 +2°C° 0.1 mm 6 mps 734 mmHg 92%
    21:00 +1°C° 0.1 mm 6 mps 734 mmHg 92%
    22:00 +1°C° 0.1 mm 6 mps 733 mmHg 92%
    23:00 +1°C° 0.1 mm 5 mps 733 mmHg 93%

    Day after tomorrow, 25 January, Saturday

    Time Temperature Precipitation Wind Pressure Humidity
    00:00 +1°C° 0.1 mm 5 mps 733 mmHg 92%
    01:00 +1°C° 0.1 mm 5 mps 733 mmHg 91%
    02:00 0°C° 0.1 mm 5 mps 733 mmHg 91%
    03:00 0°C° 0 mm 5 mps 733 mmHg 91%
    04:00 0°C° 0 mm 4 mps 733 mmHg 92%
    05:00 -1°C° 0 mm 4 mps 732 mmHg 92%
    06:00 -1°C° 0 mm 4 mps 732 mmHg 91%
    07:00 -1°C° 0 mm 5 mps 732 mmHg 90%
    08:00 -1°C° 0 mm 5 mps 732 mmHg 89%
    09:00 -1°C° 0 mm 5 mps 732 mmHg 86%
    10:00 -2°C° 0 mm 6 mps 733 mmHg 83%
    11:00 -1°C° 0 mm 6 mps 733 mmHg 80%
    12:00 -1°C° 0 mm 6 mps 733 mmHg 78%
    13:00 -1°C° 0 mm 6 mps 733 mmHg 76%
    14:00 -1°C° 0 mm 6 mps 733 mmHg 74%
    15:00 -2°C° 0 mm 6 mps 733 mmHg 75%
    16:00 -2°C° 0 mm 6 mps 733 mmHg 76%
    17:00 -3°C° 0 mm 7 mps 733 mmHg 78%
    18:00 -3°C° 0.3 mm 7 mps 734 mmHg 80%
    19:00 -3°C° 0.3 mm 7 mps 734 mmHg 83%
    20:00 -3°C° 0.3 mm 7 mps 735 mmHg 86%
    21:00 -3°C° 0.1 mm 6 mps 735 mmHg 83%
    22:00 -4°C° 0.1 mm 5 mps 736 mmHg 79%
    23:00 -4°C° 0.1 mm 5 mps 736 mmHg 76%

    26 January, Sunday

    Time Temperature Precipitation Wind Pressure Humidity
    00:00 -4°C° 0 mm 4 mps 737 mmHg 77%
    01:00 -4°C° 0 mm 4 mps 738 mmHg 78%
    02:00 -4°C° 0 mm 4 mps 738 mmHg 79%
    03:00 -4°C° 0 mm 4 mps 739 mmHg 80%
    04:00 -4°C° 0 mm 4 mps 739 mmHg 81%
    05:00 -4°C° 0 mm 4 mps 740 mmHg 82%
    06:00 -5°C° 0 mm 3 mps 740 mmHg 83%
    07:00 -5°C° 0 mm 3 mps 741 mmHg 84%
    08:00 -5°C° 0 mm 3 mps 742 mmHg 84%
    09:00 -4°C° 0 mm 3 mps 742 mmHg 81%
    10:00 -3°C° 0 mm 2 mps 743 mmHg 77%
    11:00 -2°C° 0 mm 2 mps 743 mmHg 73%
    12:00 -1°C° 0 mm 2 mps 744 mmHg 72%
    13:00 -1°C° 0 mm 2 mps 744 mmHg 71%
    14:00 -1°C° 0 mm 2 mps 744 mmHg 70%
    15:00 -1°C° 0 mm 2 mps 744 mmHg 74%
    16:00 -2°C° 0 mm 2 mps 744 mmHg 78%
    17:00 -2°C° 0 mm 2 mps 744 mmHg 82%
    18:00 -2°C° 0 mm 2 mps 744 mmHg 84%
    19:00 -2°C° 0 mm 3 mps 744 mmHg 86%
    20:00 -2°C° 0 mm 3 mps 744 mmHg 88%
    21:00 -2°C° 0 mm 3 mps 744 mmHg 88%
    22:00 -1°C° 0 mm 3 mps 744 mmHg 89%
    23:00 -1°C° 0 mm 3 mps 744 mmHg 89%

    27 January, Monday

    Time Temperature Precipitation Wind Pressure Humidity
    00:00 -1°C° 0 mm 3 mps 744 mmHg 88%
    01:00 -1°C° 0 mm 3 mps 744 mmHg 87%
    02:00 -1°C° 0 mm 3 mps 744 mmHg 86%
    03:00 -1°C° 0 mm 3 mps 744 mmHg 86%
    04:00 -2°C° 0 mm 4 mps 743 mmHg 86%
    05:00 -2°C° 0 mm 4 mps 743 mmHg 86%
    06:00 -2°C° 0 mm 4 mps 743 mmHg 86%
    07:00 -2°C° 0 mm 4 mps 743 mmHg 86%
    08:00 -1°C° 0 mm 4 mps 743 mmHg 85%
    09:00 -1°C° 0 mm 4 mps 742 mmHg 86%
    10:00 -1°C° 0 mm 4 mps 742 mmHg 86%
    11:00 -1°C° 0 mm 4 mps 742 mmHg 87%
    12:00 -1°C° 0 mm 4 mps 742 mmHg 88%
    13:00 -1°C° 0 mm 4 mps 741 mmHg 89%
    14:00 -1°C° 0 mm 4 mps 740 mmHg 90%
    15:00 -1°C° 0.2 mm 4 mps 740 mmHg 93%
    16:00 -2°C° 0.2 mm 4 mps 740 mmHg 95%
    17:00 -2°C° 0.2 mm 4 mps 739 mmHg 97%
    18:00 -2°C° 0.3 mm 4 mps 739 mmHg 97%
    19:00 -1°C° 0.3 mm 4 mps 738 mmHg 97%
    20:00 -1°C° 0.3 mm 4 mps 738 mmHg 97%
    21:00 -1°C° 0.1 mm 4 mps 737 mmHg 97%
    22:00 -2°C° 0.1 mm 4 mps 737 mmHg 97%
    23:00 -2°C° 0.1 mm 4 mps 737 mmHg 97%

    28 January, Tuesday

    Time Temperature Precipitation Wind Pressure Humidity
    00:00 -2°C° 0.1 mm 4 mps 737 mmHg 95%
    01:00 -1°C° 0.1 mm 4 mps 736 mmHg 94%
    02:00 -1°C° 0.1 mm 4 mps 736 mmHg 92%
    03:00 -1°C° 0.2 mm 4 mps 736 mmHg 94%
    04:00 -1°C° 0.2 mm 4 mps 736 mmHg 95%
    05:00 -1°C° 0.2 mm 4 mps 736 mmHg 97%
    06:00 -1°C° 0.2 mm 5 mps 736 mmHg 94%
    07:00 -1°C° 0.2 mm 5 mps 736 mmHg 91%
    08:00 -1°C° 0.2 mm 5 mps 736 mmHg 87%
    09:00 -1°C° 0 mm 5 mps 737 mmHg 86%
    10:00 -1°C° 0 mm 4 mps 737 mmHg 85%
    11:00 -1°C° 0 mm 4 mps 738 mmHg 84%
    12:00 -1°C° 0 mm 4 mps 738 mmHg 84%
    13:00 0°C° 0 mm 3 mps 738 mmHg 83%
    14:00 0°C° 0 mm 3 mps 738 mmHg 83%
    15:00 +1°C° 0 mm 2 mps 738 mmHg 86%
    16:00 -1°C° 0 mm 2 mps 738 mmHg 89%
    17:00 -2°C° 0 mm 2 mps 739 mmHg 92%
    18:00 -2°C° 0 mm 2 mps 738 mmHg 92%
    19:00 -2°C° 0 mm 3 mps 738 mmHg 91%
    20:00 -2°C° 0 mm 3 mps 738 mmHg 91%
    21:00 -2°C° 0 mm 4 mps 738 mmHg 89%
    22:00 -1°C° 0 mm 4 mps 737 mmHg 88%
    23:00 -1°C° 0 mm 5 mps 737 mmHg 87%
    Show more